| time (UTC) | temp C | wind direction | speed KPH | gust KPH | rain 1hr cm | rain 24hr cm | rain mn cm | humidity % | barometer mb |
| 20260507235407 | 7 | 160 | 0.0 | 0.0 | 0.00 | 0.00 | 0.00 | 92 | 1018.5 |
| 20260507233406 | 7 | 160 | 0.0 | 0.0 | 0.00 | 0.00 | 0.00 | 92 | 1018.5 |
| 20260507230407 | 7 | 160 | 0.0 | 0.0 | 0.00 | 0.00 | 0.00 | 91 | 1018.5 |
| 20260507225410 | 7 | 160 | 0.0 | 0.0 | 0.00 | 0.00 | 0.00 | 90 | 1018.5 |
| 20260507224407 | 7 | 160 | 0.0 | 1.6 | 0.00 | 0.00 | 0.00 | 90 | 1018.4 |
| 20260507223407 | 7 | 160 | 1.6 | 3.2 | 0.00 | 0.00 | 0.00 | 89 | 1018.4 |
| 20260507221407 | 7 | 160 | 0.0 | 3.2 | 0.00 | 0.00 | 0.00 | 89 | 1018.3 |
| 20260507220407 | 7 | 160 | 0.0 | 0.0 | 0.00 | 0.00 | 0.00 | 89 | 1018.3 |
| 20260507212407 | 8 | 160 | 0.0 | 3.2 | 0.00 | 0.00 | 0.00 | 86 | 1018.2 |
| 20260507211408 | 8 | 160 | 0.0 | 3.2 | 0.00 | 0.00 | 0.00 | 86 | 1018.1 |
| 20260507210407 | 9 | 160 | 0.0 | 1.6 | 0.00 | 0.00 | 0.00 | 85 | 1018.1 |
| 20260507203407 | 9 | 160 | 0.0 | 0.0 | 0.00 | 0.00 | 0.00 | 84 | 1018.0 |
| 20260507202408 | 9 | 160 | 0.0 | 1.6 | 0.00 | 0.00 | 0.00 | 84 | 1017.9 |
| 20260507201407 | 10 | 161 | 3.2 | 6.4 | 0.00 | 0.00 | 0.00 | 84 | 1017.7 |
| 20260507200407 | 10 | 161 | 0.0 | 1.6 | 0.00 | 0.00 | 0.00 | 82 | 1017.7 |
| 20260507195408 | 10 | 161 | 0.0 | 0.0 | 0.00 | 0.00 | 0.00 | 81 | 1017.4 |
| 20260507194408 | 10 | 161 | 0.0 | 1.6 | 0.00 | 0.00 | 0.00 | 78 | 1017.4 |
| 20260507193408 | 11 | 161 | 1.6 | 1.6 | 0.00 | 0.00 | 0.00 | 76 | 1017.3 |
| 20260507192408 | 11 | 161 | 1.6 | 6.4 | 0.00 | 0.00 | 0.00 | 75 | 1017.1 |
| 20260507191408 | 11 | 172 | 1.6 | 6.4 | 0.00 | 0.00 | 0.00 | 73 | 1017.0 |
| 20260507185408 | 12 | 178 | 3.2 | 4.8 | 0.00 | 0.00 | 0.00 | 70 | 1016.9 |
| 20260507183408 | 13 | 153 | 4.8 | 9.7 | 0.00 | 0.00 | 0.00 | 67 | 1016.7 |
| 20260507182409 | 13 | 157 | 6.4 | 12.9 | 0.00 | 0.00 | 0.00 | 66 | 1016.6 |
| 20260507181408 | 13 | 122 | 4.8 | 9.7 | 0.00 | 0.00 | 0.00 | 65 | 1016.6 |
| 20260507180408 | 13 | 148 | 4.8 | 9.7 | 0.00 | 0.00 | 0.00 | 64 | 1016.5 |
| 20260507174411 | 15 | 177 | 6.4 | 12.9 | 0.00 | 0.00 | 0.00 | 60 | 1016.5 |
| 20260507170409 | 15 | 130 | 4.8 | 16.1 | 0.00 | 0.00 | 0.00 | 58 | 1016.0 |
| 20260507165409 | 15 | 136 | 9.7 | 14.5 | 0.00 | 0.00 | 0.00 | 58 | 1016.1 |
| 20260507161409 | 16 | 164 | 8.0 | 16.1 | 0.00 | 0.00 | 0.00 | 57 | 1015.9 |
| 20260507160409 | 16 | 102 | 8.0 | 16.1 | 0.00 | 0.00 | 0.00 | 57 | 1016.0 |
| 20260507155409 | 16 | 115 | 6.4 | 14.5 | 0.00 | 0.00 | 0.00 | 56 | 1016.0 |
| 20260507153409 | 16 | 142 | 9.7 | 25.7 | 0.00 | 0.00 | 0.00 | 58 | 1015.9 |
| 20260507152409 | 16 | 113 | 8.0 | 14.5 | 0.00 | 0.00 | 0.00 | 57 | 1015.9 |
| 20260507151409 | 16 | 142 | 6.4 | 14.5 | 0.00 | 0.00 | 0.00 | 60 | 1015.9 |
| 20260507150409 | 15 | 103 | 8.0 | 16.1 | 0.00 | 0.00 | 0.00 | 61 | 1015.9 |
| 20260507145410 | 15 | 131 | 4.8 | 14.5 | 0.00 | 0.00 | 0.00 | 59 | 1015.9 |
| 20260507144410 | 16 | 81 | 8.0 | 16.1 | 0.00 | 0.00 | 0.00 | 58 | 1015.8 |
| 20260507142504 | 16 | 52 | 4.8 | 16.1 | 0.00 | 0.00 | 0.00 | 57 | 1015.7 |
| 20260507141401 | 17 | 103 | 6.4 | 17.7 | 0.00 | 0.00 | 0.00 | 52 | 1015.8 |
| 20260507140401 | 17 | 19 | 6.4 | 14.5 | 0.00 | 0.00 | 0.00 | 54 | 1015.8 |
| 20260507135401 | 17 | 130 | 9.7 | 20.9 | 0.00 | 0.00 | 0.00 | 54 | 1015.9 |
| 20260507134404 | 16 | 106 | 8.0 | 14.5 | 0.00 | 0.00 | 0.00 | 53 | 1015.9 |
| 20260507132401 | 17 | 88 | 8.0 | 16.1 | 0.00 | 0.00 | 0.00 | 53 | 1015.8 |
| 20260507131401 | 16 | 68 | 9.7 | 17.7 | 0.00 | 0.00 | 0.00 | 52 | 1015.8 |
| 20260507125401 | 16 | 40 | 4.8 | 16.1 | 0.00 | 0.00 | 0.00 | 58 | 1015.8 |
| 20260507124401 | 16 | 107 | 8.0 | 17.7 | 0.00 | 0.00 | 0.00 | 55 | 1015.7 |
| 20260507123404 | 16 | 9 | 6.4 | 19.3 | 0.00 | 0.00 | 0.00 | 58 | 1015.7 |
| 20260507122401 | 16 | 105 | 6.4 | 14.5 | 0.00 | 0.00 | 0.00 | 57 | 1015.5 |
| 20260507121402 | 16 | 109 | 6.4 | 17.7 | 0.00 | 0.00 | 0.00 | 61 | 1015.5 |
| 20260507120401 | 16 | 79 | 6.4 | 16.1 | 0.00 | 0.00 | 0.00 | 58 | 1015.5 |
| 20260507115402 | 16 | 65 | 6.4 | 19.3 | 0.00 | 0.00 | 0.00 | 59 | 1015.5 |
| 20260507114402 | 15 | 86 | 4.8 | 12.9 | 0.00 | 0.00 | 0.00 | 60 | 1015.5 |
| 20260507111402 | 15 | 132 | 9.7 | 17.7 | 0.00 | 0.00 | 0.00 | 62 | 1015.5 |
| 20260507110405 | 13 | 70 | 3.2 | 9.7 | 0.00 | 0.00 | 0.00 | 64 | 1015.5 |
| 20260507105402 | 14 | 350 | 8.0 | 16.1 | 0.00 | 0.00 | 0.00 | 64 | 1015.5 |
| 20260507104402 | 14 | 13 | 3.2 | 8.0 | 0.00 | 0.00 | 0.00 | 65 | 1015.4 |
| 20260507103402 | 14 | 15 | 6.4 | 11.3 | 0.00 | 0.00 | 0.00 | 66 | 1015.4 |
| 20260507102402 | 14 | 36 | 6.4 | 12.9 | 0.00 | 0.00 | 0.00 | 68 | 1015.3 |
| 20260507101402 | 14 | 10 | 4.8 | 11.3 | 0.00 | 0.00 | 0.00 | 74 | 1015.4 |
| 20260507095405 | 13 | 35 | 9.7 | 20.9 | 0.00 | 0.00 | 0.00 | 73 | 1015.2 |
| 20260507094405 | 13 | 91 | 4.8 | 11.3 | 0.00 | 0.00 | 0.00 | 74 | 1015.2 |
| 20260507093403 | 13 | 16 | 3.2 | 12.9 | 0.00 | 0.00 | 0.00 | 75 | 1015.3 |
| 20260507092402 | 12 | 13 | 6.4 | 12.9 | 0.00 | 0.00 | 0.00 | 79 | 1015.3 |
| 20260507091402 | 12 | 321 | 6.4 | 14.5 | 0.00 | 0.00 | 0.00 | 80 | 1015.2 |
| 20260507090403 | 12 | 5 | 8.0 | 14.5 | 0.00 | 0.00 | 0.00 | 80 | 1015.1 |
| 20260507085403 | 11 | 355 | 6.4 | 9.7 | 0.00 | 0.00 | 0.00 | 81 | 1015.1 |
| 20260507084403 | 11 | 63 | 6.4 | 12.9 | 0.00 | 0.00 | 0.00 | 80 | 1015.1 |
| 20260507083404 | 11 | 346 | 6.4 | 12.9 | 0.00 | 0.00 | 0.00 | 82 | 1015.0 |
| 20260507081403 | 11 | 355 | 6.4 | 14.5 | 0.00 | 0.00 | 0.00 | 85 | 1014.9 |
| 20260507080403 | 10 | 360 | 8.0 | 14.5 | 0.00 | 0.00 | 0.00 | 85 | 1014.9 |
| 20260507075403 | 10 | 5 | 6.4 | 12.9 | 0.00 | 0.00 | 0.00 | 86 | 1014.8 |
| 20260507074403 | 10 | 360 | 8.0 | 14.5 | 0.00 | 0.00 | 0.00 | 85 | 1014.8 |
| 20260507073403 | 10 | 360 | 4.8 | 9.7 | 0.00 | 0.00 | 0.00 | 88 | 1014.6 |
| 20260507072403 | 10 | 351 | 3.2 | 8.0 | 0.00 | 0.00 | 0.00 | 89 | 1014.6 |
| 20260507071406 | 9 | 351 | 6.4 | 16.1 | 0.00 | 0.00 | 0.00 | 89 | 1014.6 |
| 20260507070406 | 9 | 327 | 4.8 | 11.3 | 0.00 | 0.00 | 0.00 | 92 | 1014.5 |
| 20260507064403 | 8 | 333 | 3.2 | 8.0 | 0.00 | 0.00 | 0.00 | 95 | 1014.4 |
| 20260507063404 | 8 | 5 | 3.2 | 8.0 | 0.00 | 0.00 | 0.00 | 96 | 1014.5 |
| 20260507062404 | 7 | 5 | 4.8 | 8.0 | 0.00 | 0.00 | 0.00 | 96 | 1014.4 |
| 20260507061404 | 7 | 5 | 3.2 | 8.0 | 0.00 | 0.00 | 0.00 | 96 | 1014.2 |
| 20260507060407 | 7 | 9 | 4.8 | 8.0 | 0.00 | 0.00 | 0.00 | 96 | 1014.2 |
| 20260507055404 | 6 | 336 | 4.8 | 6.4 | 0.00 | 0.00 | 0.00 | 96 | 1014.1 |
| 20260507054404 | 6 | 327 | 4.8 | 6.4 | 0.00 | 0.00 | 0.00 | 96 | 1014.0 |
| 20260507053404 | 6 | 360 | 3.2 | 6.4 | 0.00 | 0.00 | 0.00 | 96 | 1013.9 |
| 20260507051404 | 5 | 340 | 3.2 | 4.8 | 0.00 | 0.00 | 0.00 | 95 | 1013.7 |
| 20260507050404 | 4 | 339 | 1.6 | 3.2 | 0.00 | 0.00 | 0.00 | 96 | 1013.5 |
| 20260507044404 | 3 | 313 | 3.2 | 4.8 | 0.00 | 0.00 | 0.00 | 95 | 1013.4 |
| 20260507043404 | 3 | 5 | 1.6 | 3.2 | 0.00 | 0.00 | 0.00 | 95 | 1013.3 |
| 20260507042404 | 2 | 5 | 0.0 | 1.6 | 0.00 | 0.00 | 0.00 | 95 | 1013.2 |
| 20260507041404 | 2 | 5 | 0.0 | 0.0 | 0.00 | 0.00 | 0.00 | 95 | 1013.1 |
| 20260507040404 | 2 | 5 | 0.0 | 0.0 | 0.00 | 0.00 | 0.00 | 94 | 1013.0 |
| 20260507035405 | 2 | 5 | 0.0 | 0.0 | 0.00 | 0.00 | 0.00 | 94 | 1013.0 |
| 20260507034405 | 2 | 5 | 0.0 | 1.6 | 0.00 | 0.00 | 0.00 | 94 | 1012.9 |
| 20260507032405 | 3 | 5 | 0.0 | 1.6 | 0.00 | 0.00 | 0.00 | 94 | 1012.8 |
| 20260507031405 | 3 | 5 | 0.0 | 1.6 | 0.00 | 0.00 | 0.00 | 94 | 1012.7 |
| 20260507030408 | 3 | 5 | 0.0 | 1.6 | 0.00 | 0.00 | 0.00 | 94 | 1012.6 |
| 20260507025406 | 3 | 5 | 0.0 | 0.0 | 0.00 | 0.00 | 0.00 | 94 | 1012.5 |
| 20260507024405 | 3 | 5 | 3.2 | 3.2 | 0.00 | 0.00 | 0.00 | 94 | 1012.6 |
| 20260507023405 | 3 | 5 | 1.6 | 3.2 | 0.00 | 0.00 | 0.00 | 94 | 1012.5 |
| 20260507022405 | 3 | 5 | 1.6 | 1.6 | 0.00 | 0.00 | 0.00 | 94 | 1012.5 |
| 20260507021405 | 3 | 5 | 0.0 | 1.6 | 0.00 | 0.00 | 0.00 | 94 | 1012.4 |
| 20260507020405 | 3 | 5 | 0.0 | 0.0 | 0.00 | 0.00 | 0.00 | 94 | 1012.3 |
| 20260507014405 | 4 | 5 | 1.6 | 3.2 | 0.00 | 0.00 | 0.00 | 94 | 1012.2 |
| 20260507013406 | 4 | 5 | 3.2 | 3.2 | 0.00 | 0.00 | 0.00 | 93 | 1012.1 |
| 20260507012406 | 4 | 5 | 1.6 | 4.8 | 0.00 | 0.00 | 0.00 | 93 | 1012.0 |
| 20260507011406 | 4 | 5 | 3.2 | 4.8 | 0.00 | 0.00 | 0.00 | 93 | 1012.0 |
| 20260507004406 | 5 | 355 | 1.6 | 3.2 | 0.00 | 0.00 | 0.00 | 93 | 1011.9 |
| 20260507003406 | 5 | 344 | 3.2 | 6.4 | 0.00 | 0.00 | 0.00 | 93 | 1011.8 |
| 20260507002406 | 5 | 343 | 3.2 | 6.4 | 0.00 | 0.00 | 0.00 | 93 | 1011.7 |
| 20260507001406 | 5 | 345 | 3.2 | 6.4 | 0.00 | 0.00 | 0.00 | 93 | 1011.7 |